Tracking 19720 objects as of 27-Jun-2019
HD Live streaming from Space Station
objects crossing your sky now

FLOCK 3P 38

Track FLOCK 3P 38 now!
10-day predictions
FLOCK 3P 38 is classified as:


NORAD ID: 42037
Int'l Code: 2017-008CT
Perigee: 488.8 km
Apogee: 500.6 km
Inclination: 97.4 °
Period: 94.4 minutes
Semi major axis: 6865 km
RCS: Unknown
Launch date: February 15, 2017
Source: United States (US)
Launch site: SRIHARIKOTA (SRI)
aabbcc
Your satellite tracking list
Your tracking list is empty




NASA's NSSDC Master Catalog

Two Line Element Set (TLE):
1 42037U 17008CT  19176.85340910 +.00001494 +00000-0 +60757-4 0  9993
2 42037 097.4063 244.0618 0008556 130.2218 229.9771 15.26068785131014
Source of the keplerian elements: AFSPC